FW9994 Weather Reports


Display with metric or nautical units.
time (UTC)temp
F
wind
direction
speed
MPH
gust
MPH
rain 1hr
in
rain 24hr
in
rain mn
in
humidity
%
barometer
mb
20260502212915 63 0.0 0.0 0.00 0.00 0.00 78 1015.4
20260502212414 63 0.0 0.0 0.00 0.00 0.00 78 1015.1
20260502211901 63 0.0 0.0 0.00 0.00 0.00 78 1014.5
20260502211401 63 0.0 0.0 0.00 0.00 0.00 77 1014.2
20260502210903 63 0.0 0.0 0.00 0.00 0.00 77 1014.1
20260502210340 63 0.0 0.0 0.00 0.00 0.00 77 1013.9
20260502205835 63 0.0 0.0 0.00 0.00 0.00 77 1013.8
20260502205334 63 0.0 0.0 0.00 0.00 0.00 77 1013.9
20260502204831 63 0.0 0.0 0.00 0.00 0.00 76 1013.9
20260502204330 64 0.0 0.0 0.00 0.00 0.00 76 1014.1
20260502203829 64 0.0 0.0 0.00 0.00 0.00 76 1014.1
20260502203329 64 0.0 0.0 0.00 0.00 0.00 75 1014.3
20260502202829 64 0.0 0.0 0.00 0.00 0.00 75 1014.5
20260502202334 65 0.0 0.0 0.00 0.00 0.00 74 1014.6
20260502201833 65 0.0 0.0 0.00 0.00 0.00 74 1014.7
20260502201325 65 0.0 0.0 0.00 0.00 0.00 74 1014.8
20260502200313 66 0.0 0.0 0.00 0.00 0.00 72 1014.8
20260502195729 66 0.0 0.0 0.00 0.00 0.00 72 1014.9
20260502194731 67 0.0 0.0 0.00 0.00 0.00 72 1015.0
20260502194211 67 0.0 0.0 0.00 0.00 0.00 72 1015.1
20260502193709 67 0.0 0.0 0.00 0.00 0.00 72 1015.2
20260502192133 68 0.0 0.0 0.00 0.00 0.00 71 1014.8
20260502191638 68 0.0 0.0 0.00 0.00 0.00 70 1014.8
20260502191135 69 0.0 0.0 0.00 0.00 0.00 70 1014.8
20260502190629 69 0.0 0.0 0.00 0.00 0.00 69 1014.7
20260502190126 69 0.0 0.0 0.00 0.00 0.00 69 1014.7
20260502185614 69 0.0 0.0 0.00 0.00 0.00 69 1014.7
20260502185113 69 0.0 0.0 0.00 0.00 0.00 68 1014.6
20260502184612 70 0.0 0.0 0.00 0.00 0.00 67 1014.6
20260502184103 70 47 0.0 3.0 0.00 0.00 0.00 67 1014.7
20260502183046 71 47 0.0 3.0 0.00 0.00 0.00 66 1014.8
20260502182040 71 12 1.0 4.0 0.00 0.00 0.00 65 1014.8
20260502181540 71 12 1.0 4.0 0.00 0.00 0.00 64 1014.8
20260502181040 71 0 1.0 7.0 0.00 0.00 0.00 64 1014.7
20260502180540 72 75 2.0 7.0 0.00 0.00 0.00 64 1014.7
20260502164030 76 357 1.0 4.0 0.00 0.00 0.00 57 1015.4
20260502163531 76 38 1.0 3.0 0.00 0.00 0.00 55 1015.5
20260502163029 75 199 1.0 3.0 0.00 0.00 0.00 54 1015.7
20260502162529 75 261 1.0 3.0 0.00 0.00 0.00 55 1015.7
20260502162030 75 216 1.0 3.0 0.00 0.00 0.00 54 1015.7
20260502161029 76 312 1.0 4.0 0.00 0.00 0.00 54 1015.9
20260502160529 76 220 2.0 4.0 0.00 0.00 0.00 53 1015.8
20260502152029 76 220 2.0 8.0 0.00 0.00 0.00 54 1016.4
20260502151523 76 268 3.0 8.0 0.00 0.00 0.00 54 1016.5
20260502150524 77 208 3.0 8.0 0.00 0.00 0.00 52 1016.6
20260502130511 76 249 4.0 11.0 0.00 0.00 0.00 55 1017.7
20260502123503 75 205 3.0 10.0 0.00 0.00 0.00 57 1018.1
20260502122503 75 266 4.0 12.0 0.00 0.00 0.00 57 1018.1
20260502121504 74 260 5.0 12.0 0.00 0.00 0.00 57 1018.2
20260502121001 76 201 3.0 9.0 0.00 0.00 0.00 56 1018.2
20260502120453 75 285 2.0 7.0 0.00 0.00 0.00 57 1018.1
20260502115452 73 185 4.0 12.0 0.00 0.00 0.00 58 1018.1
20260502114952 74 237 3.0 12.0 0.00 0.00 0.00 58 1018.1
20260502114451 74 256 3.0 7.0 0.00 0.00 0.00 59 1018.2
20260502113452 74 303 3.0 11.0 0.00 0.00 0.00 57 1018.2
20260502112950 75 260 2.0 11.0 0.00 0.00 0.00 56 1018.3
20260502112450 75 241 3.0 8.0 0.00 0.00 0.00 56 1018.3
20260502111951 75 312 4.0 8.0 0.00 0.00 0.00 56 1018.4
20260502111448 74 285 3.0 10.0 0.00 0.00 0.00 57 1018.5
20260502110948 75 226 3.0 11.0 0.00 0.00 0.00 58 1018.5
20260502110447 74 291 3.0 11.0 0.00 0.00 0.00 57 1018.7
20260502105947 75 256 3.0 8.0 0.00 0.00 0.00 56 1018.6
20260502105448 75 253 3.0 9.0 0.00 0.00 0.00 56 1018.6
20260502104945 75 165 3.0 9.0 0.00 0.00 0.00 56 1018.7
20260502103944 74 226 3.0 10.0 0.00 0.00 0.00 57 1018.7
20260502103445 74 218 3.0 9.0 0.00 0.00 0.00 57 1018.8
20260502102945 73 243 4.0 11.0 0.00 0.00 0.00 58 1018.7
20260502102445 73 264 4.0 11.0 0.00 0.00 0.00 58 1018.8
20260502101945 73 268 4.0 8.0 0.00 0.00 0.00 59 1018.9
20260502101445 73 285 4.0 9.0 0.00 0.00 0.00 60 1018.8
20260502100945 73 241 4.0 10.0 0.00 0.00 0.00 59 1019.0
20260502100445 72 219 4.0 12.0 0.00 0.00 0.00 60 1019.1
20260502090930 69 0.0 0.0 0.00 0.00 0.00 59 1019.4
20260502090431 69 0.0 0.0 0.00 0.00 0.00 60 1019.4
20260502070827 56 0.0 0.0 0.00 0.00 0.00 75 1019.4
20260502070304 57 0.0 0.0 0.00 0.00 0.00 74 1019.5
20260502065801 57 0.0 0.0 0.00 0.00 0.00 72 1019.5
20260502065305 57 0.0 0.0 0.00 0.00 0.00 69 1019.4
20260502064802 58 0.0 0.0 0.00 0.00 0.00 68 1019.5
20260502063752 58 0.0 0.0 0.00 0.00 0.00 62 1019.6
20260502063241 58 0.0 0.0 0.00 0.00 0.00 61 1019.5
20260502062732 58 0.0 0.0 0.00 0.00 0.00 61 1019.3
20260502062229 58 0.0 0.0 0.00 0.00 0.00 61 1019.2
20260502061729 58 0.0 0.0 0.00 0.00 0.00 61 1019.3
20260502061229 58 0.0 0.0 0.00 0.00 0.00 60 1019.4
20260502060729 58 0.0 0.0 0.00 0.00 0.00 60 1019.3
20260502060228 58 0.0 0.0 0.00 0.00 0.00 60 1019.3
20260502055729 57 0.0 0.0 0.00 0.00 0.00 61 1019.4
20260502055229 57 0.0 0.0 0.00 0.00 0.00 61 1019.4
20260502054729 56 0.0 0.0 0.00 0.00 0.00 62 1019.4
20260502054229 56 0.0 0.0 0.00 0.00 0.00 63 1019.5
20260502053731 55 0.0 0.0 0.00 0.00 0.00 64 1019.4
20260502053228 54 0.0 0.0 0.00 0.00 0.00 67 1019.4
20260502052727 53 0.0 0.0 0.00 0.00 0.00 68 1019.5
20260502052215 52 0.0 0.0 0.00 0.00 0.00 70 1019.4
20260502051716 51 0.0 0.0 0.00 0.00 0.00 71 1019.3
20260502050649 50 0.0 0.0 0.00 0.00 0.00 73 1019.3
20260502045629 49 0.0 0.0 0.00 0.00 0.00 73 1019.4
20260502045130 49 0.0 0.0 0.00 0.00 0.00 73 1019.2
20260502044629 49 0.0 0.0 0.00 0.00 0.00 73 1019.2
20260502043622 49 0.0 0.0 0.00 0.00 0.00 73 1019.3
20260502043111 48 0.0 0.0 0.00 0.00 0.00 73 1019.3
20260502042609 48 0.0 0.0 0.00 0.00 0.00 73 1019.3
20260502042102 48 0.0 0.0 0.00 0.00 0.00 73 1019.3
20260502041602 48 0.0 0.0 0.00 0.00 0.00 73 1019.4
20260502040546 48 0.0 0.0 0.00 0.00 0.00 73 1019.4
20260502035530 48 0.0 0.0 0.00 0.00 0.00 73 1019.8
20260502034528 48 0.0 0.0 0.00 0.00 0.00 72 1019.7
20260502033030 49 0.0 0.0 0.00 0.00 0.00 72 1019.8
20260502032528 49 0.0 0.0 0.00 0.00 0.00 72 1019.7
20260502032029 49 0.0 0.0 0.00 0.00 0.00 71 1019.7
20260502031524 49 0.0 0.0 0.00 0.00 0.00 71 1019.7
20260502030501 49 0.0 0.0 0.00 0.00 0.00 71 1019.8
20260502030001 49 0.0 0.0 0.00 0.00 0.00 70 1019.7
20260502025501 50 0.0 0.0 0.00 0.00 0.00 70 1019.9
20260502025004 50 0.0 0.0 0.00 0.00 0.00 70 1019.9
20260502024502 50 0.0 0.0 0.00 0.00 0.00 70 1019.9
20260502024003 50 0.0 0.0 0.00 0.00 0.00 69 1020.0
20260502022930 50 0.0 0.0 0.00 0.00 0.00 69 1020.2
20260502021931 51 0.0 0.0 0.00 0.00 0.00 68 1020.3
20260502021429 51 0.0 0.0 0.00 0.00 0.00 67 1020.2
20260502020931 51 0.0 0.0 0.00 0.00 0.00 67 1020.2
20260502020431 51 0.0 0.0 0.00 0.00 0.00 67 1020.3
20260502015926 52 0.0 0.0 0.00 0.00 0.00 66 1020.3
20260502014413 52 0.0 0.0 0.00 0.00 0.00 65 1020.3
20260502013401 53 0.0 0.0 0.00 0.00 0.00 64 1020.3
20260502012902 53 0.0 0.0 0.00 0.00 0.00 64 1020.4
20260502012401 53 0.0 0.0 0.00 0.00 0.00 63 1020.4
20260502011336 54 0.0 0.0 0.00 0.00 0.00 62 1020.3
20260502010830 54 0.0 0.0 0.00 0.00 0.00 62 1020.3
20260502010321 54 0.0 0.0 0.00 0.00 0.00 62 1020.4
20260502005311 54 0.0 0.0 0.00 0.00 0.00 61 1020.6
20260502004802 55 0.0 0.0 0.00 0.00 0.00 61 1020.6
20260502004302 55 0.0 0.0 0.00 0.00 0.00 61 1020.6
20260502003806 55 0.0 0.0 0.00 0.00 0.00 61 1020.7
20260502003303 55 0.0 0.0 0.00 0.00 0.00 61 1020.7
20260502002756 55 0.0 0.0 0.00 0.00 0.00 61 1020.9
20260502002249 55 0.0 0.0 0.00 0.00 0.00 61 1021.0
20260502001734 55 0.0 0.0 0.00 0.00 0.00 60 1021.1
20260502001230 55 0.0 0.0 0.00 0.00 0.00 60 1021.1
20260502000233 55 0.0 0.0 0.00 0.00 0.00 59 1021.1
20260501235226 56 0.0 0.0 0.00 0.00 0.00 59 1021.2
20260501234728 56 0.0 0.0 0.00 0.00 0.00 59 1021.2
20260501234224 56 0.0 0.0 0.00 0.00 0.00 59 1021.2
20260501233724 56 0.0 0.0 0.00 0.00 0.00 59 1021.3
20260501233230 56 0.0 0.0 0.00 0.00 0.00 59 1021.2
20260501232711 56 0.0 0.0 0.00 0.00 0.00 59 1021.3
20260501232208 56 0.0 0.0 0.00 0.00 0.00 59 1021.4
20260501231634 56 0.0 0.0 0.00 0.00 0.00 59 1021.3
20260501231130 56 0.0 0.0 0.00 0.00 0.00 59 1021.5
20260501230129 57 0.0 0.0 0.00 0.00 0.00 58 1021.5
20260501225630 57 0.0 0.0 0.00 0.00 0.00 57 1021.5
20260501225130 57 0.0 0.0 0.00 0.00 0.00 57 1021.5
20260501224630 57 0.0 0.0 0.00 0.00 0.00 57 1021.6
20260501224129 57 0.0 0.0 0.00 0.00 0.00 57 1021.5
20260501223629 57 0.0 0.0 0.00 0.00 0.00 57 1021.5
20260501223134 58 0.0 0.0 0.00 0.00 0.00 57 1021.5
20260501222626 58 0.0 0.0 0.00 0.00 0.00 56 1021.5
20260501222124 58 0.0 0.0 0.00 0.00 0.00 56 1021.5
20260501221602 58 0.0 0.0 0.00 0.00 0.00 55 1021.5
20260501221050 58 0.0 0.0 0.00 0.00 0.00 55 1021.5
20260501220547 58 0.0 0.0 0.00 0.00 0.00 55 1021.6
20260501220043 58 0.0 0.0 0.00 0.00 0.00 55 1021.6
20260501215542 58 0.0 0.0 0.00 0.00 0.00 55 1021.6
20260501215041 58 0.0 0.0 0.00 0.00 0.00 56 1021.6
20260501214539 57 0.0 0.0 0.00 0.00 0.00 57 1021.6